Flag for Canada Weather past 2 weeks in Prince Albert, Saskatchewan, Canada

Now
27 °F

Passing clouds.


Feels Like: 27 °F
Forecast: 27 / 39 °F
Wind: No wind

Location: Prince Albert


UV Index: 0 (Low)

Visibility: 15 mi


Pressure: 29.96 "Hg

Humidity: 100%

Dew point: 27 °F

Location of Prince AlbertLocation

Historic Weather in Prince Albert

°F

Prince Albert temperature yesterday

Maximum temperature yesterday: 39 °F (at 4:00 PM)
Minimum temperature yesterday: 28 °F (at 12:00 AM)
Average temperature yesterday: 33 °F

Past Weeks' High & Low Weather Summary

 TemperatureHumidityPressure
High50 °F (Apr 8, 3:00 PM)100% (Apr 5, 12:00 AM)30.50 "Hg (Apr 5, 12:00 AM)
Low-4 °F (Apr 14, 6:00 AM)33% (Apr 5, 4:00 PM)29.40 "Hg (Apr 9, 5:00 AM)
Average29 °F70%29.99 "Hg
* Reported Midnight between Apr 4 and Apr 5 — Midnight between Apr 19 and Apr 20, Prince Albert, Weather by CustomWeather, © 2014

Note: Actual official high and low records may vary slightly from our data, if they occured in-between our weather recording intervals... More about our weather records

Advertising

Historic Weather Conditions — Data for Previous 24 hours

 ConditionsComfort  
Time TempWeatherWind HumidityBarometerVisibility
12:00 AM
Apr 20
32 °FPassing clouds.No wind87%29.95 "Hg15 mi
11:00 PM
Apr 19
34 °FOvercast.2 mph81%29.96 "Hg15 mi
10:00 PM34 °FOvercast.3 mph81%29.96 "Hg15 mi
9:00 PM36 °FPassing clouds.9 mph70%29.95 "Hg15 mi
8:00 PM36 °FPartly sunny.9 mph75%29.92 "Hg15 mi
7:00 PM37 °FOvercast.10 mph70%29.92 "Hg15 mi
6:00 PM37 °FOvercast.12 mph70%29.90 "Hg15 mi
5:00 PM37 °FOvercast.12 mph70%29.90 "Hg15 mi
4:00 PM39 °FPartly sunny.13 mph61%29.89 "Hg15 mi
3:00 PM37 °FPartly sunny.9 mph70%29.89 "Hg15 mi
2:00 PM36 °FOvercast.13 mph75%29.89 "Hg15 mi
1:00 PM36 °FOvercast.10 mph75%29.88 "Hg15 mi
12:00 PM34 °FMostly cloudy.13 mph75%29.87 "Hg15 mi
11:00 AM32 °FOvercast.9 mph80%29.86 "Hg15 mi
10:00 AM30 °FMostly cloudy.10 mph86%29.85 "Hg15 mi
9:00 AM30 °FMostly cloudy.9 mph86%29.85 "Hg15 mi
8:00 AM28 °FLight snow. Mostly cloudy.10 mph93%29.84 "Hg15 mi
7:00 AM28 °FLight snow. Overcast.9 mph93%29.83 "Hg15 mi
6:00 AM28 °FLight snow. Overcast.8 mph93%29.83 "Hg15 mi
5:00 AM28 °FLight snow. Overcast.8 mph93%29.81 "Hg15 mi
4:00 AM28 °FLight snow. Overcast.10 mph93%29.80 "Hg12 mi
3:00 AM28 °FLight snow. Ice fog.12 mph93%29.81 "Hg3 mi
2:00 AM28 °FLight snow. Ice fog.13 mph93%29.82 "Hg3 mi
1:00 AM28 °FLight snow. Ice fog.14 mph93%29.83 "Hg3 mi
Weather by CustomWeather, © 2014

See weather overview